[[{"header":{"parameterUnit":"m.s-1","parameterCategory":1,"la1":30.2991,"la2":30.254,"lo1":-89.0895,"lo2":-89.0444,"dy":0.0017,"dx":0.0017,"nx":28,"ny":28,"refTime":"2024-03-22T09:00:00:Z","depth":0,"parameterNumber":2,"parameterNumberName":"U-component_of_WINDS"},"data":[0,0,0,0,0,0,0,0,0,0,0,0,0,0,0,0,0,0,0,0,0,0,0,0,0,0,0,0,0,0,0,0,0,0,0,0,0,0,0,0,0,0,0,0,0,0,0,0,0,0,0,0,0,0,0,0,0,0,-0.2835,-0.2835,0,-0.2832,-0.2832,-0.2832,-0.279,-0.2789,-0.2788,-0.2787,-0.2788,-0.2789,-0.279,0,0,0,0,0,0,0,0,0,0,0,0,0,-0.2804,-0.2805,-0.2835,-0.2835,-0.2835,-0.2832,-0.2832,-0.2832,-0.279,-0.2789,-0.2788,-0.2786,-0.2787,-0.2788,-0.279,0,0,0,0,0,0,0,0,0,0,0,0,0,-0.2812,-0.2805,-0.2835,-0.2813,-0.2811,-0.2832,-0.2832,-0.2832,-0.2791,-0.2789,-0.2787,-0.2786,-0.2787,-0.2788,-0.279,-0.2832,0,0,-0.2795,-0.2795,0,0,0,0,0,0,0,0,-0.2811,-0.2813,-0.2816,-0.2815,-0.2813,-0.281,-0.2822,-0.2832,-0.2791,-0.2799,-0.2787,-0.2785,-0.2796,-0.2797,-0.28,-0.2832,-0.2832,-0.2795,-0.2796,-0.2796,-0.2797,0,0,0,0,0,0,0,-0.2811,-0.2813,-0.2834,-0.2817,-0.2814,-0.2804,-0.2804,-0.2824,-0.2807,-0.2798,-0.2795,-0.2795,-0.2795,-0.2799,-0.28,-0.2832,-0.2795,-0.2796,-0.2797,-0.2798,-0.2898,-0.2899,0,0,0,0,0,0,-0.2813,-0.2812,-0.2834,-0.2834,-0.2808,-0.2806,-0.2805,-0.2812,-0.2806,-0.2804,-0.2796,-0.2793,-0.2797,-0.2798,-0.28,-0.2849,-0.2796,-0.2798,-0.2799,-0.2896,-0.2898,-0.29,0,0,0,0,0,0,-0.2812,-0.2815,-0.2834,-0.2822,-0.2824,-0.2808,-0.2817,-0.2813,-0.2817,-0.2805,-0.2802,-0.2803,-0.2796,-0.2798,-0.2824,-0.2849,-0.2798,-0.28,-0.2894,-0.2897,-0.2899,-0.2948,0,0,0,0,0,0,-0.2812,-0.2815,-0.2831,-0.2823,-0.2825,-0.2858,-0.2818,-0.2814,-0.2819,-0.2815,-0.2811,-0.2809,-0.2795,-0.2822,-0.2826,-0.285,-0.2801,-0.2892,-0.2895,-0.2898,-0.2944,-0.2952,-0.2959,0,0,0,0,0,-0.2811,-0.2846,-0.2832,-0.2835,-0.2844,-0.286,-0.2861,-0.2843,-0.2822,-0.2838,-0.283,-0.2809,-0.2845,-0.2825,-0.2829,-0.2854,-0.289,-0.2894,-0.2898,-0.2941,-0.2951,-0.2959,0,0,0,0,0,0,-0.2859,-0.2845,-0.2829,-0.2862,-0.2862,-0.2852,-0.2872,-0.2854,-0.2861,-0.2857,-0.2835,-0.2834,-0.2864,-0.2861,-0.2839,-0.2894,-0.2864,-0.2869,-0.2895,-0.2904,-0.2911,-0.2912,-0.2802,0,0,0,0,0,-0.2873,-0.2887,-0.2873,-0.2904,-0.2904,-0.2888,-0.2895,-0.288,-0.288,-0.288,-0.2874,-0.2875,-0.2887,-0.2895,-0.2905,-0.2943,-0.2942,-0.2962,-0.2969,-0.2975,-0.298,-0.3,-0.3009,-0.2913,-0.2913,-0.2913,0,0,-0.2904,-0.2897,-0.2907,-0.2913,-0.2912,-0.2927,-0.2889,-0.2906,-0.2917,-0.2883,-0.2908,-0.2903,-0.2903,-0.2935,-0.2949,-0.2934,-0.3006,-0.298,-0.2985,-0.2987,-0.3005,-0.3014,-0.3022,-0.2915,-0.2915,-0.2915,0,0,-0.2967,-0.2963,-0.2988,-0.2986,-0.2983,-0.2972,-0.2978,-0.297,-0.2965,-0.2989,-0.2964,-0.2976,-0.2996,-0.2997,-0.3,-0.306,-0.3042,-0.3064,-0.3103,-0.3122,-0.313,-0.3136,-0.3159,-0.3167,-0.3069,-0.3069,-0.3069,0,-0.3006,-0.3026,-0.3004,-0.3022,-0.3026,-0.2993,-0.3019,-0.3018,-0.302,-0.3023,-0.3005,-0.3029,-0.3026,-0.3058,-0.3073,-0.3076,-0.3082,-0.3066,-0.313,-0.3137,-0.3142,-0.3164,-0.3172,-0.3071,-0.3071,-0.3071,-0.3071,0,-0.3074,-0.3088,-0.3109,-0.3109,-0.3115,-0.3137,-0.3118,-0.3126,-0.3111,-0.3101,-0.3125,-0.3121,-0.3129,-0.3135,-0.3121,-0.3164,-0.3155,-0.3134,-0.3103,-0.3155,-0.3174,-0.3182,-0.3076,-0.3075,-0.3074,-0.3073,0,0,-0.3171,-0.3156,-0.3164,-0.3164,-0.3157,-0.3168,-0.3188,-0.3194,-0.3202,-0.3203,-0.322,-0.3236,-0.3216,-0.3219,-0.3205,-0.3221,-0.327,-0.3198,-0.3198,-0.3213,-0.3318,-0.3336,-0.3345,-0.3256,-0.3258,-0.3259,-0.3319,0,-0.3233,-0.3266,-0.3245,-0.3282,-0.3295,-0.3263,-0.328,-0.3278,-0.3269,-0.3279,-0.3269,-0.3281,-0.3253,-0.3255,-0.327,-0.3261,-0.3291,-0.3256,-0.3273,-0.3274,-0.3276,-0.3355,-0.3374,-0.3431,-0.3326,-0.3327,-0.3328,0,-0.331,-0.3313,-0.3351,-0.334,-0.3345,-0.3361,-0.3364,-0.3374,-0.337,-0.3362,-0.3365,-0.3345,-0.3364,-0.3332,-0.3358,-0.3335,-0.334,-0.3336,-0.3338,-0.3341,-0.3306,-0.3362,-0.3449,-0.3458,-0.334,-0.3339,-0.3338,0,-0.3379,-0.3392,-0.3416,-0.3416,-0.3404,-0.3416,-0.3411,-0.3406,-0.3411,-0.3413,-0.3416,-0.3422,-0.3425,-0.343,-0.3412,-0.339,-0.3441,-0.3407,-0.3436,-0.3437,-0.345,-0.345,-0.3541,-0.3451,-0.345,-0.345,-0.345,0,-0.3451,-0.3476,-0.3446,-0.3461,-0.3488,-0.3463,-0.349,-0.3482,-0.3477,-0.349,-0.3462,-0.3475,-0.345,-0.346,-0.3446,-0.347,-0.3472,-0.3467,-0.3463,-0.347,-0.3471,-0.3475,-0.3472,-0.3453,-0.3452,-0.3452,-0.3451,0,-0.3534,-0.3514,-0.3539,-0.3524,-0.3521,-0.3541,-0.3529,-0.3542,-0.353,-0.3547,-0.3549,-0.353,-0.3541,-0.3523,-0.3532,-0.3522,-0.3556,-0.3545,-0.3557,-0.3555,-0.3585,-0.3583,-0.3683,-0.3695,-0.3596,-0.3597,-0.3597,0,-0.3583,-0.3601,-0.3587,-0.3593,-0.359,-0.36,-0.3604,-0.358,-0.3585,-0.3581,-0.3595,-0.3603,-0.3608,-0.3627,-0.3614,-0.3621,-0.3611,-0.3645,-0.3612,-0.3618,-0.3613,-0.3613,-0.3615,-0.3654,-0.3655,-0.3656,-0.3656,0,-0.3672,-0.3661,-0.3667,-0.367,-0.3675,-0.3676,-0.3675,-0.3682,-0.3656,-0.3663,-0.3673,-0.3677,-0.3684,-0.3693,-0.3696,-0.3691,-0.367,-0.3666,-0.3674,-0.3683,-0.3689,-0.3687,-0.3578,-0.3665,-0.3664,-0.3664,-0.3663,-0.3663,-0.374,-0.3754,-0.3746,-0.3754,-0.375,-0.3749,-0.3761,-0.3749,-0.3756,-0.376,-0.3745,-0.3758,-0.3752,-0.3754,-0.3751,-0.3762,-0.3746,-0.3757,-0.376,-0.3763,-0.3768,-0.3685,-0.3762,-0.3761,-0.3761,-0.3761,-0.3761,0,-0.3829,-0.3821,-0.3828,-0.3827,-0.3833,-0.3809,-0.3807,-0.3814,-0.3825,-0.3821,-0.3826,-0.3837,-0.3844,-0.3831,-0.3836,-0.3847,-0.3837,-0.3849,-0.385,-0.3849,-0.3781,-0.3775,-0.3857,-0.3857,-0.3857,-0.3857,-0.3857,-0.3857,-0.3876,-0.3899,-0.3886,-0.3906,-0.3899,-0.3911,-0.3911,-0.391,-0.3907,-0.392,-0.3925,-0.3915,-0.3908,-0.3912,-0.3917,-0.3913,-0.3917,-0.3933,-0.3926,-0.3863,-0.3854,-0.3845,-0.3839,-0.3934,-0.3934,-0.3993,-0.3994,-0.3994]},{"header":{"parameterUnit":"m.s-1","parameterCategory":1,"la1":30.2991,"la2":30.254,"lo1":-89.0895,"lo2":-89.0444,"dy":0.0017,"dx":0.0017,"nx":28,"ny":28,"refTime":"2024-03-22T09:00:00:Z","depth":0,"parameterNumber":3,"parameterNumberName":"V-component_of_WINDS"},"data":[0,0,0,0,0,0,0,0,0,0,0,0,0,0,0,0,0,0,0,0,0,0,0,0,0,0,0,0,0,0,0,0,0,0,0,0,0,0,0,0,0,0,0,0,0,0,0,0,0,0,0,0,0,0,0,0,0,0,-5.765,-5.7652,0,-5.7807,-5.7809,-5.7811,-5.7749,-5.7746,-5.7742,-5.7738,-5.7895,-5.7903,-5.791,0,0,0,0,0,0,0,0,0,0,0,0,0,-5.7292,-5.7299,-5.765,-5.7652,-5.7654,-5.7807,-5.7809,-5.7811,-5.775,-5.7745,-5.7741,-5.7737,-5.7893,-5.7902,-5.7911,0,0,0,0,0,0,0,0,0,0,0,0,0,-5.7448,-5.7301,-5.765,-5.7642,-5.7643,-5.7806,-5.7809,-5.7812,-5.7751,-5.7745,-5.774,-5.7735,-5.789,-5.7901,-5.7912,-5.8091,0,0,-5.7947,-5.7952,0,0,0,0,0,0,0,0,-5.744,-5.7461,-5.7641,-5.7643,-5.7644,-5.7753,-5.774,-5.7905,-5.7752,-5.771,-5.7738,-5.7732,-5.7852,-5.7866,-5.7907,-5.8099,-5.8105,-5.7948,-5.7954,-5.7959,-5.7963,0,0,0,0,0,0,0,-5.7429,-5.7454,-5.7712,-5.7644,-5.7645,-5.7629,-5.7645,-5.7771,-5.7809,-5.7713,-5.7709,-5.7729,-5.7852,-5.7897,-5.7911,-5.8108,-5.7947,-5.7957,-5.7964,-5.7969,-5.8454,-5.8459,0,0,0,0,0,0,-5.7418,-5.7446,-5.7707,-5.7717,-5.7526,-5.764,-5.7658,-5.7723,-5.7808,-5.7816,-5.7733,-5.7725,-5.788,-5.7897,-5.7916,-5.8132,-5.7959,-5.797,-5.7976,-5.8448,-5.8455,-5.8461,0,0,0,0,0,0,-5.7411,-5.7442,-5.7701,-5.758,-5.7612,-5.7652,-5.7726,-5.7729,-5.7774,-5.7823,-5.7829,-5.7772,-5.7876,-5.79,-5.8048,-5.8136,-5.7975,-5.7985,-5.844,-5.845,-5.8458,-5.8565,0,0,0,0,0,0,-5.7401,-5.744,-5.7509,-5.7582,-5.7619,-5.7832,-5.7731,-5.7736,-5.7795,-5.7786,-5.7862,-5.7869,-5.7874,-5.8032,-5.806,-5.8149,-5.7994,-5.8433,-5.8445,-5.8455,-5.8554,-5.8577,-5.8596,0,0,0,0,0,-5.7388,-5.7532,-5.7513,-5.7545,-5.7707,-5.7838,-5.7858,-5.7862,-5.7802,-5.7872,-5.7903,-5.7866,-5.8122,-5.8048,-5.8078,-5.8173,-5.8427,-5.8441,-5.8454,-5.8544,-5.8572,-5.8596,0,0,0,0,0,0,-5.7467,-5.7542,-5.7521,-5.7694,-5.776,-5.7827,-5.7915,-5.7892,-5.7975,-5.7963,-5.7963,-5.7981,-5.8134,-5.8168,-5.8083,-5.835,-5.8265,-5.8286,-5.8323,-5.835,-5.8371,-5.836,-5.8004,0,0,0,0,0,-5.7505,-5.7606,-5.7665,-5.7811,-5.7846,-5.7875,-5.7932,-5.793,-5.7997,-5.8025,-5.8067,-5.8133,-5.8228,-5.829,-5.8381,-5.8558,-5.8573,-5.8638,-5.8659,-5.8676,-5.8694,-5.879,-5.882,-5.8506,-5.8506,-5.8506,0,0,-5.7584,-5.7637,-5.77,-5.7829,-5.788,-5.7984,-5.7899,-5.8012,-5.8089,-5.8041,-5.8185,-5.8218,-5.8291,-5.8455,-5.853,-5.8488,-5.8784,-5.8694,-5.8707,-5.8716,-5.8807,-5.8837,-5.8863,-5.8516,-5.8514,-5.8512,0,0,-5.778,-5.7831,-5.7959,-5.8012,-5.809,-5.8109,-5.8139,-5.821,-5.8231,-5.8375,-5.8342,-5.8432,-5.8596,-5.865,-5.8699,-5.8916,-5.8885,-5.8945,-5.9056,-5.9149,-5.9174,-5.9196,-5.9274,-5.9301,-5.8962,-5.8962,-5.8962,0,-5.7868,-5.8024,-5.8027,-5.8144,-5.8201,-5.8164,-5.8292,-5.8343,-5.8447,-5.8486,-5.8439,-5.8644,-5.8691,-5.8867,-5.892,-5.8961,-5.8995,-5.8936,-5.9171,-5.9192,-5.9213,-5.9287,-5.9316,-5.8969,-5.8968,-5.8968,-5.8967,0,-5.8128,-5.8237,-5.833,-5.8433,-5.8501,-5.8623,-5.8642,-5.871,-5.8702,-5.8725,-5.8871,-5.8926,-5.9027,-5.9068,-5.906,-5.9244,-5.9215,-5.917,-5.9084,-5.925,-5.9319,-5.9348,-5.8979,-5.8976,-5.8974,-5.8973,0,0,-5.838,-5.8483,-5.8517,-5.8563,-5.8647,-5.8731,-5.885,-5.8951,-5.9009,-5.9081,-5.9181,-5.9321,-5.9279,-5.9334,-5.9332,-5.9414,-5.9583,-5.9358,-5.9359,-5.9398,-5.9788,-5.9823,-5.9855,-5.9562,-5.9568,-5.9572,-5.9782,0,-5.8583,-5.8796,-5.8801,-5.8995,-5.9095,-5.9061,-5.9165,-5.9227,-5.9252,-5.9339,-5.9365,-5.9465,-5.9402,-5.9435,-5.9515,-5.9545,-5.9661,-5.953,-5.9655,-5.9659,-5.9639,-5.9892,-5.9929,-6.0124,-5.9809,-5.9813,-5.9817,0,-5.885,-5.8932,-5.9137,-5.9207,-5.9249,-5.9343,-5.9435,-5.9519,-5.9588,-5.96,-5.9663,-5.9648,-5.9769,-5.9679,-5.9845,-5.9756,-5.9807,-5.9829,-5.9837,-5.9849,-5.9749,-5.9912,-6.0187,-6.0216,-5.986,-5.9856,-5.9853,0,-5.9013,-5.9175,-5.9319,-5.9359,-5.9444,-5.9511,-5.9549,-5.9613,-5.9673,-5.9753,-5.9791,-5.9883,-5.9934,-6.0005,-6.0015,-5.9949,-6.0182,-6.0093,-6.0195,-6.0195,-6.0246,-6.0243,-6.0534,-6.0278,-6.0277,-6.0277,-6.0276,0,-5.9241,-5.9367,-5.9394,-5.9482,-5.9622,-5.9627,-5.9765,-5.9797,-5.9855,-5.9947,-5.9922,-6.001,-6.0018,-6.0107,-6.0115,-6.0252,-6.0274,-6.0286,-6.0287,-6.029,-6.0288,-6.0323,-6.031,-6.0285,-6.0283,-6.0281,-6.028,0,-5.9448,-5.9471,-5.9625,-5.9693,-5.9713,-5.9814,-5.9871,-5.9955,-5.9976,-6.0094,-6.0122,-6.0156,-6.026,-6.0277,-6.0398,-6.0404,-6.0567,-6.0554,-6.0545,-6.0543,-6.0644,-6.0635,-6.0969,-6.1013,-6.0728,-6.073,-6.0732,0,-5.9592,-5.9689,-5.9768,-5.9829,-5.9871,-5.997,-6.0031,-6.0038,-6.0103,-6.0189,-6.0262,-6.0364,-6.0446,-6.0614,-6.0648,-6.0741,-6.073,-6.084,-6.0744,-6.0743,-6.0732,-6.0727,-6.0736,-6.0859,-6.0862,-6.0865,-6.0867,0,-5.9846,-5.9852,-5.9943,-6.0038,-6.0112,-6.0186,-6.0256,-6.0307,-6.0323,-6.0397,-6.0504,-6.0568,-6.0693,-6.0794,-6.0887,-6.0924,-6.0899,-6.0897,-6.0926,-6.0929,-6.0921,-6.0927,-6.0597,-6.089,-6.0887,-6.0886,-6.0885,-6.0884,-6.0026,-6.0111,-6.018,-6.0281,-6.0335,-6.0401,-6.0484,-6.0516,-6.0606,-6.071,-6.0708,-6.0825,-6.0891,-6.1013,-6.1056,-6.1147,-6.1111,-6.1152,-6.1163,-6.1173,-6.1183,-6.0906,-6.1163,-6.1163,-6.1162,-6.1162,-6.1161,0,-6.0279,-6.0322,-6.0415,-6.0515,-6.0595,-6.0565,-6.0641,-6.0709,-6.0813,-6.0877,-6.0959,-6.1082,-6.118,-6.1222,-6.1318,-6.1383,-6.1373,-6.1408,-6.1403,-6.1412,-6.121,-6.1176,-6.1414,-6.1414,-6.1414,-6.1413,-6.1413,-6.1413,-6.042,-6.0562,-6.0577,-6.0744,-6.0785,-6.0902,-6.0948,-6.1009,-6.106,-6.1199,-6.1281,-6.1308,-6.1363,-6.1463,-6.1551,-6.1561,-6.1597,-6.1637,-6.1642,-6.1452,-6.1426,-6.1402,-6.137,-6.1645,-6.1645,-6.1837,-6.1839,-6.184]}]]